Showing default

BUGSAT 1, 40014

Orbit data source: Space-Track

BUGSAT 1, 40014 is a payload satellite owned by Satellogic SA (AR) in SSO that was launched on Thu, 19 Jun 2014 UTC via a DNEPR launch vehicle from the Orenburg, Russia (OREN). Payload-class satellites include a variety of spacecraft equipped with specific instruments for various scientific and technological missions. These include communications satellites like Starlink; space stations such as the ISS; scientific satellites like the Hubble; Earth observation satellites from companies like Planet Labs, Umbra, and HawkEye 360; GPS; miniature CubeSats for education and research; and military/defense satellites.

Loading next visibility...
Identifier
40014, 2014-033E
Orbit
SSO
Country
Flag of UnknownUnknown / ARGN
Related business
Manufacturer
Satellogic SA
Mission
Operational Commercial Imaging
Bus & Motor
BUGSAT, Unknown motor
Mass
22 kg wet, 22 kg dry
Launch date (UTC)
2014-06-19 (11 years ago)
Launch vehicle
DNEPR
Launch site
Orenburg, Russia (OREN)
Object type
Payload
Rocket body
Debris
Shape & HBR
Box, 0.3 m
Radar Cross Section
0.263 m², Medium (>0.1 m² and < 1m²)

Expand to show TLE details & history
Last TLE update: 11 hours ago

TLE from 11 hours ago
0 BUGSAT 1
1 40014U 14033E   25260.32251795  .00004224  00000-0  24884-3 0  9990
2 40014  98.0661 332.4045 0030947  33.1441 327.1718 15.11809588614557
Epoch: 2025-09-17T07:44Z
TLE epoch observation values (Epoch: 2025-09-17T07:44:25.55Z)
Latitude
-0.00009°
Longitude
-140.20207°
Altitude
515.79 km
Speed
7.616 km/s
True Right ascension
22h 09m 37s
True Declination
0° 00' 00"
Sunlit
Object was in full shadow at epoch
Visualization orbit readout
Latitude
Unknown
Longitude
Unknown
Altitude
Unknown
Speed
Unknown
Apparent Right ascension
Unknown
Apparent Declination
Unknown
Sunlit
N/A
Visualization observer readout
Local Sidereal Time
11:58:46
Azimuth
Unknown
Elevation
Unknown
Doppler factor
Unknown
Orbital elements
Apogee altitude
549.059 km
Perigee altitude
506.316 km
Semi-major axis
6,905.824 km
Eccentricity
0.00309
Inclination
98.0661°
RAAN
332.4045°
Arg. of periapsis
33.1441°
True anomaly
326.97892°
Mean anomaly
327.1718°
Eccentric anomaly
327.07542°
Mean motion
3.78199 °/min
Orbital period
95.19 mins
BSTAR
0.00024884
Loading maneuver chart data...
Computing Atmospheric mass density...
Loading historical data...
Loading historical data...
Loading historical data...
Loading historical data...
Loading historical data...
Loading historical data...
Loading historical data...

Documentation

Showing up to 5 results
|